Temperature
20 20 20 20 19 19 19 19 18 18 18 18 18 18 18 18 18 18 18 18 17 17 17 17 17 17 17 17 17 17 17 17 17 17 17 17 17 17 16 16 16 16 16
20 20 20 20 19 19 19 18 18 18 18 18 18 18 18 18 17 17 17 17 17 17 17 17 17 17 17 17 17 17 17 17 17 17 17 17 16 16 16 16 16 16 16
20 20 20 19 19 19 19 18 18 18 18 18 17 17 17 17 17 17 17 17 17 17 17 17 17 16 16 16 16 16 16 16 16 16 16 16 16 16 16 16 16 16 16
20 20 19 19 19 19 18 18 18 18 18 17 17 17 17 17 17 17 17 17 17 16 16 16 16 16 16 16 16 16 16 15 16 16 16 16 16 15 15 15 16 16 15
20 19 19 19 19 19 18 18 18 18 17 17 17 17 17 17 16 16 16 16 16 16 16 16 16 16 16 15 15 15 15 15 15 15 15 15 15 15 15 15 15 15 15
20 19 19 19 19 18 18 18 18 17 17 17 17 17 16 16 16 16 16 16 16 16 16 16 15 15 15 15 15 15 15 15 15 15 15 15 15 15 15 15 14 14 15
19 19 19 19 18 18 18 17 17 17 17 16 16 16 16 16 16 16 16 15 15 15 15 15 15 15 15 15 15 15 15 14 14 14 14 14 14 14 14 14 14 14 14
19 19 19 18 18 17 17 17 17 16 16 16 16 16 16 16 15 15 15 15 15 15 15 15 15 15 15 14 14 14 14 14 14 14 14 14 14 14 14 14 14 14 14
19 18 18 18 17 17 17 16 16 16 16 16 15 15 15 15 15 15 15 15 15 15 14 14 14 14 14 14 14 14 14 14 14 14 14 14 14 14 14 14 14 13 14
18 18 17 17 17 16 16 16 16 16 15 15 15 15 15 15 15 15 15 15 15 14 14 14 14 14 14 14 14 14 14 14 14 14 14 14 13 13 13 13 13 13 13
18 17 17 17 17 16 16 16 16 15 15 15 15 15 15 15 15 14 14 14 14 14 14 14 14 14 14 14 13 13 13 13 13 13 13 13 13 13 13 13 13 13 13
17 17 16 16 16 16 16 15 15 15 15 15 14 14 14 14 14 14 14 14 14 14 14 14 13 13 13 13 13 13 13 13 13 13 13 13 13 13 13 13 13 13 13
16 16 16 16 15 15 15 15 15 15 15 14 14 14 14 14 14 14 14 14 13 13 13 13 13 13 13 13 13 13 13 13 13 12 12 12 12 12 12 12 12 12 12
16 16 15 15 15 15 15 15 14 14 14 14 14 14 14 14 13 14 13 13 13 13 13 13 13 13 13 13 12 12 12 12 12 12 12 12 12 12 12 12 12 12 12
15 15 15 15 14 14 14 14 14 14 14 14 14 14 14 13 13 13 13 13 13 13 12 12 12 12 12 12 12 12 12 12 12 11 11 11 11 11 11 11 11 11 11
15 15 14 14 14 14 14 14 14 14 14 13 13 13 13 13 13 13 13 13 13 13 12 12 12 12 11 11 11 11 11 11 11 11 11 11 11 11 10 10 10 10 10
14 14 14 14 14 14 14 14 14 14 13 13 13 13 13 13 13 13 13 12 12 12 12 12 11 11 11 11 11 10 10 10 10 10 10 10 10 10 10 10 10 10 10
14 14 14 14 14 14 13 13 13 13 13 13 13 13 13 12 13 13 12 12 12 12 11 11 11 10 10 10 10 10 10 10 10 10 9 9 9 9 9 9 9 9 9
13 13 13 13 13 13 13 13 13 13 13 12 12 12 12 12 12 12 12 12 11 11 11 10 10 10 10 10 9 9 9 9 9 9 9 9 9 9 9 8 8 8 8
13 13 13 13 13 13 13 13 13 12 12 12 12 12 12 12 12 11 11 11 10 10 10 10 10 10 9 9 9 9 9 9 9 9 8 8 8 8 8 8 8 8 8
13 13 13 13 13 13 12 12 12 12 12 12 11 11 11 11 11 11 11 10 10 10 10 9 9 9 9 9 8 8 8 8 8 8 8 8 8 8 8 8 7 8 8
13 12 12 12 12 12 12 12 12 12 11 11 11 11 11 11 11 10 10 10 10 9 9 9 9 9 8 8 8 8 8 8 8 8 7 7 7 7 7 7 7 7 7
12 12 12 12 12 12 12 12 11 11 11 11 11 11 10 10 10 10 10 9 9 9 9 9 9 8 8 8 8 7 7 7 7 7 7 7 7 7 7 7 7 7 7
12 12 12 11 11 11 11 11 11 11 11 10 10 10 10 10 10 9 9 9 9 9 9 8 8 8 8 7 7 7 7 7 7 7 7 7 7 7 7 7 7 7 7
11 11 11 11 11 11 11 11 11 10 10 10 10 10 10 9 9 9 9 9 9 8 8 8 8 8 7 7 7 7 6 6 6 6 6 6 6 6 6 6 6 6 6
11 11 11 11 11 11 11 10 10 10 10 10 9 9 9 9 9 9 9 8 8 8 8 8 7 7 7 7 6 6 6 6 6 6 6 6 6 6 6 6 6 6 6
Wind_Speed
6 5 4 3 3 3 2 2 2 2 2 2 2 2 2 2 2 1 2 2 1 2 2 1 2 1 1 1 1 1 1 2 3 3 2 1 0 2 2 3 5 6 7
5 4 4 3 3 3 2 2 2 2 2 2 2 2 2 2 2 2 2 1 1 1 2 1 2 2 1 1 1 1 1 2 3 3 2 1 2 2 2 2 3 5 6
4 4 3 3 3 3 3 2 1 1 1 1 1 1 1 1 1 2 2 1 2 2 2 2 2 1 2 1 1 1 1 1 1 2 3 2 2 1 1 2 2 2 5
4 4 3 3 3 3 2 2 2 2 1 1 1 2 1 1 2 1 1 2 2 2 1 2 2 2 2 2 2 2 1 1 1 1 2 2 2 1 0 1 2 2 3
5 3 3 3 2 2 2 2 1 1 1 1 1 0 0 1 1 2 2 2 2 2 2 2 3 3 3 3 2 2 2 2 1 1 2 2 2 1 2 2 3 3 4
5 3 2 2 2 2 2 2 2 1 1 1 1 1 0 1 1 2 2 1 1 2 3 3 3 3 3 3 4 4 4 3 3 3 3 3 4 3 2 2 2 2 3
4 2 2 2 2 2 2 2 2 1 1 1 1 1 1 2 2 2 2 1 2 2 3 2 2 2 2 2 3 4 3 4 5 5 4 5 5 4 3 3 3 3 5
3 2 2 2 1 2 2 2 1 1 2 2 1 1 1 2 2 2 2 1 1 2 2 2 2 2 2 2 2 2 3 4 5 5 6 6 6 5 5 5 5 4 4
3 2 2 2 1 2 2 2 1 1 1 1 1 1 1 2 2 1 1 1 1 2 2 2 2 2 3 3 2 3 4 5 6 6 6 7 8 8 6 3 2 2 4
2 2 1 2 2 2 2 2 1 1 1 0 0 0 1 1 2 1 2 1 1 2 2 2 3 3 3 2 2 2 4 5 4 4 5 6 5 6 6 5 5 3 3
2 2 2 2 2 2 2 1 1 1 1 1 1 1 0 1 2 2 1 1 2 2 2 2 2 3 4 4 2 3 5 5 3 3 3 4 3 3 3 4 4 4 4
3 3 2 2 1 2 2 1 1 2 1 1 1 1 1 1 1 1 1 1 1 1 2 2 3 4 4 4 3 4 5 3 2 2 2 3 3 4 4 4 4 5 5
3 3 2 2 2 2 2 2 1 1 1 0 0 1 2 2 2 2 2 2 2 1 2 2 3 3 3 3 4 5 3 1 1 1 3 4 4 4 3 3 3 4 4
3 2 1 2 2 2 2 1 1 1 1 0 1 2 2 2 2 2 2 2 2 1 2 3 4 4 3 3 4 3 1 1 1 2 3 4 3 3 3 2 3 2 2
3 2 1 1 1 1 1 1 0 1 2 3 3 2 2 2 3 3 2 1 1 1 0 1 2 2 2 2 2 2 2 2 2 2 2 3 3 3 3 3 2 2 2
3 2 1 1 1 1 1 1 3 2 2 3 3 2 2 3 3 2 1 1 1 2 3 1 1 1 1 2 2 2 2 2 2 2 2 2 3 3 3 3 2 1 2
2 1 1 1 0 0 1 1 1 4 5 4 2 1 1 1 2 1 1 1 1 3 2 1 1 1 1 1 2 2 2 2 1 1 1 2 2 2 2 2 2 2 3
1 1 0 1 1 0 0 1 1 1 1 3 3 2 2 2 2 2 2 4 3 2 0 1 1 1 1 1 1 1 2 2 2 1 1 2 2 2 2 2 2 2 3
1 1 1 1 1 0 0 0 0 0 0 1 1 2 3 3 4 4 3 2 1 1 1 1 1 1 1 1 1 1 1 1 1 1 1 2 2 2 2 3 3 4 3
1 2 1 0 0 0 0 0 0 0 0 0 0 1 1 2 2 2 1 1 0 1 1 1 1 1 1 1 1 1 1 1 1 2 2 2 2 2 3 4 4 3 3
1 2 2 1 0 1 1 1 1 1 1 1 1 1 1 1 0 0 0 0 1 1 1 1 1 1 1 1 1 2 2 2 2 2 2 3 3 3 3 4 4 4 4
0 1 0 0 0 1 0 0 0 0 1 1 1 1 1 1 1 1 0 1 1 1 1 1 1 1 1 2 2 2 2 2 3 3 3 3 4 4 4 4 4 4 4
1 1 1 0 0 0 1 1 0 0 0 0 0 0 1 0 0 0 0 0 1 1 1 1 1 1 2 2 1 1 2 3 3 3 3 4 4 4 4 4 5 5 4
1 1 0 0 0 0 0 1 1 1 1 1 1 1 0 1 1 0 0 1 1 1 1 0 1 2 2 2 1 2 2 3 3 3 3 4 4 4 4 4 5 5 4
1 1 1 1 0 0 0 0 1 1 1 1 1 0 0 1 1 1 1 1 1 1 2 1 1 2 3 3 2 2 3 3 3 4 3 3 4 5 5 5 4 4 4
1 1 1 1 0 0 1 1 1 0 0 0 1 0 0 1 1 1 1 1 1 1 2 2 2 2 3 3 4 4 4 5 6 6 4 3 4 4 5 4 5 4 4
Wind_Direction
181 179 176 177 178 174 179 192 198 206 199 199 204 203 202 209 206 196 222 206 210 265 275 233 254 256 251 251 203 183 203 179 220 272 264 273 235 241 220 214 220 220 224
177 173 179 175 171 179 193 198 193 200 203 206 209 209 211 198 189 192 221 218 199 237 271 267 271 273 266 246 215 226 227 207 199 252 279 262 240 239 226 225 231 230 230
162 166 170 174 177 187 195 194 183 180 197 213 193 212 227 202 195 214 215 225 224 235 243 239 256 255 264 262 251 254 261 254 202 218 258 252 263 274 283 272 258 258 247
143 148 166 182 183 182 176 172 173 168 168 209 208 215 205 196 203 215 234 252 249 245 235 226 238 230 233 236 244 250 254 268 241 234 259 262 262 280 224 272 286 270 259
144 150 182 193 170 153 156 167 167 161 175 184 173 189 194 184 210 210 230 236 230 246 258 248 243 234 226 222 226 220 213 219 226 240 261 272 268 265 249 250 259 273 264
143 160 173 164 152 154 157 141 133 127 131 126 151 176 237 250 242 209 202 230 237 241 253 260 254 239 246 250 247 229 205 205 210 221 240 242 248 239 237 240 244 271 280
141 148 141 146 154 164 158 135 150 167 155 171 198 182 231 266 251 236 227 215 243 247 249 258 268 257 233 256 263 266 260 243 213 204 223 235 237 231 225 240 236 237 248
134 135 127 121 156 167 146 153 180 169 172 189 215 225 246 290 275 252 251 225 263 262 250 231 237 266 275 247 247 279 281 274 254 229 225 235 238 229 215 221 231 245 263
118 122 136 144 165 171 162 181 183 168 198 208 218 199 215 298 301 263 206 191 275 288 274 258 248 253 277 257 240 271 289 290 279 262 253 257 262 252 230 210 232 244 274
123 134 147 160 160 164 172 181 182 164 181 131 360 140 164 296 314 263 198 182 241 281 298 290 264 260 274 260 227 247 273 279 288 296 290 290 279 273 253 219 212 220 245
96 89 88 117 141 148 152 159 148 118 83 64 47 15 35 358 348 326 231 191 218 239 270 285 286 297 295 293 268 241 252 264 278 277 282 285 286 284 276 245 218 208 220
77 73 66 67 94 112 117 107 107 113 89 57 50 355 328 316 340 320 327 254 229 202 255 278 293 314 319 309 292 280 279 280 277 282 287 286 278 278 275 262 240 231 228
79 68 54 54 60 81 118 128 114 106 113 129 192 274 296 303 308 317 313 303 296 259 276 289 309 318 328 323 307 303 305 286 279 282 277 275 269 268 274 279 271 255 258
87 74 67 67 52 45 63 110 139 175 174 228 244 259 277 293 307 321 318 310 317 306 301 317 326 333 334 319 318 318 310 267 228 256 276 284 293 299 293 281 273 276 278
69 53 52 51 77 64 51 44 141 212 200 197 222 225 228 269 269 249 200 227 243 252 273 13 10 359 350 344 330 323 323 335 314 297 292 297 300 302 297 297 286 276 263
64 41 29 34 51 95 104 13 1 348 307 245 229 210 234 245 266 279 237 228 217 106 98 77 309 307 310 305 306 316 316 305 296 296 301 302 309 310 313 321 323 306 292
70 29 3 13 31 47 149 145 360 359 11 12 337 278 221 274 317 333 29 55 59 103 103 240 260 269 278 293 304 308 305 301 297 315 321 321 325 321 321 324 332 324 304
50 7 309 256 258 310 295 183 168 144 360 346 343 332 332 351 22 27 79 82 49 50 230 269 284 294 298 309 320 318 323 338 343 335 323 325 318 312 315 316 308 295 290
56 341 299 293 269 270 328 135 133 145 187 306 345 347 337 7 33 37 76 85 70 333 317 312 297 299 303 311 315 313 316 323 322 314 310 307 299 298 300 297 292 292 287
3 3 14 316 299 16 86 137 166 183 309 257 244 275 346 52 42 24 42 59 42 311 317 327 314 302 298 308 309 305 301 296 295 296 301 302 300 291 287 287 284 284 281
330 333 8 48 93 197 183 199 210 183 201 228 246 248 154 131 163 250 299 303 248 258 275 288 298 305 302 291 286 289 292 293 286 287 289 291 297 298 293 284 281 280 284
349 345 352 116 91 94 129 153 139 150 221 236 288 337 50 81 79 49 27 328 290 256 242 244 280 275 269 276 283 297 304 305 309 306 299 298 302 299 300 299 296 296 296
10 10 352 334 98 110 88 74 84 116 154 143 176 62 56 77 92 84 62 305 309 317 316 305 301 303 298 292 276 265 266 271 273 275 285 294 295 292 289 286 287 293 294
16 347 297 294 56 80 107 88 56 60 91 112 92 70 83 187 177 178 225 294 296 300 316 328 274 281 302 310 300 293 278 275 275 275 280 284 288 287 284 282 283 282 281
357 318 272 247 228 195 151 84 71 68 64 56 66 64 236 204 218 256 276 288 301 306 307 313 298 293 301 298 303 310 318 324 327 323 303 296 294 291 287 281 283 287 283
293 290 268 241 227 145 123 121 118 136 226 18 57 76 205 233 265 286 299 318 321 311 309 319 324 323 322 318 321 330 332 330 327 325 315 292 296 300 303 297 292 291 290
Height
1512 1513 1513 1514 1514 1514 1514 1514 1514 1514 1514 1514 1514 1514 1514 1514 1513 1513 1513 1513 1513 1513 1514 1514 1514 1514 1513 1513 1513 1513 1513 1513 1512 1511 1512 1512 1511 1511 1511 1511 1511 1510 1510
1510 1511 1512 1512 1512 1512 1512 1512 1512 1511 1511 1511 1511 1511 1511 1511 1511 1511 1511 1511 1510 1510 1511 1511 1511 1511 1511 1511 1510 1510 1510 1510 1510 1509 1509 1509 1508 1508 1508 1508 1508 1508 1508
1509 1509 1510 1510 1510 1510 1510 1510 1509 1509 1509 1509 1509 1508 1508 1508 1508 1508 1508 1508 1508 1508 1508 1508 1508 1508 1508 1507 1507 1507 1507 1507 1507 1506 1506 1506 1506 1506 1505 1505 1505 1505 1505
1507 1507 1507 1508 1508 1508 1508 1508 1507 1507 1506 1506 1506 1506 1505 1505 1505 1505 1505 1505 1505 1505 1505 1505 1505 1505 1505 1504 1504 1504 1504 1504 1504 1504 1503 1503 1503 1503 1502 1502 1502 1502 1502
1504 1505 1505 1506 1506 1506 1505 1505 1505 1504 1504 1503 1503 1503 1503 1502 1502 1502 1502 1502 1502 1502 1502 1502 1502 1502 1502 1502 1502 1501 1501 1501 1501 1501 1500 1500 1499 1499 1499 1499 1498 1498 1498
1502 1503 1503 1503 1504 1504 1503 1503 1502 1502 1501 1501 1500 1500 1500 1500 1500 1500 1500 1500 1500 1499 1499 1499 1499 1499 1499 1499 1498 1498 1498 1498 1497 1497 1497 1496 1496 1496 1496 1496 1496 1495 1494
1500 1501 1501 1501 1501 1501 1501 1501 1500 1499 1499 1498 1498 1498 1497 1497 1497 1497 1497 1497 1497 1497 1497 1496 1496 1496 1496 1495 1495 1495 1495 1494 1494 1494 1493 1493 1492 1493 1493 1492 1492 1492 1491
1498 1499 1499 1499 1499 1499 1499 1498 1498 1497 1497 1496 1496 1495 1495 1495 1495 1495 1494 1494 1494 1494 1494 1493 1493 1493 1493 1492 1492 1491 1490 1490 1490 1490 1490 1489 1489 1489 1489 1489 1488 1488 1487
1496 1496 1497 1497 1497 1497 1496 1496 1496 1495 1494 1494 1493 1493 1493 1493 1492 1492 1492 1491 1491 1491 1491 1490 1490 1489 1489 1489 1488 1487 1487 1486 1486 1486 1486 1486 1485 1485 1485 1485 1484 1483 1482
1494 1495 1495 1495 1495 1495 1495 1494 1494 1493 1493 1492 1491 1491 1490 1490 1489 1489 1489 1488 1488 1488 1487 1487 1487 1486 1486 1485 1485 1484 1483 1483 1483 1482 1482 1482 1481 1481 1481 1480 1480 1479 1478
1493 1493 1493 1493 1493 1493 1493 1493 1492 1492 1491 1490 1489 1489 1488 1488 1487 1486 1486 1485 1485 1485 1484 1484 1484 1483 1483 1482 1481 1480 1480 1479 1479 1478 1478 1477 1477 1477 1477 1476 1476 1475 1474
1491 1491 1491 1491 1491 1491 1491 1491 1490 1490 1489 1489 1488 1487 1486 1486 1485 1484 1484 1483 1483 1482 1481 1481 1481 1480 1480 1479 1478 1477 1477 1476 1475 1474 1474 1473 1473 1473 1472 1472 1472 1471 1470
1490 1490 1490 1490 1490 1490 1489 1489 1489 1488 1487 1487 1486 1485 1485 1484 1483 1483 1482 1481 1480 1480 1479 1479 1478 1478 1477 1476 1475 1474 1473 1472 1471 1471 1470 1469 1469 1469 1468 1467 1466 1466 1466
1489 1489 1489 1489 1489 1489 1489 1488 1487 1487 1486 1485 1484 1484 1483 1482 1481 1480 1479 1479 1478 1478 1477 1476 1475 1475 1474 1473 1472 1471 1470 1470 1469 1468 1467 1466 1465 1464 1463 1462 1461 1461 1460
1488 1488 1488 1488 1487 1487 1487 1487 1486 1486 1485 1484 1483 1482 1481 1480 1479 1478 1477 1477 1476 1475 1474 1473 1472 1471 1470 1470 1469 1468 1467 1467 1466 1465 1463 1462 1461 1460 1459 1458 1457 1456 1455
1488 1488 1488 1487 1487 1486 1486 1486 1485 1485 1484 1483 1482 1481 1479 1479 1478 1477 1476 1475 1474 1473 1472 1470 1470 1469 1468 1467 1466 1465 1465 1463 1462 1461 1460 1458 1457 1455 1454 1453 1452 1451 1450
1487 1487 1487 1486 1486 1485 1485 1484 1483 1483 1482 1481 1480 1479 1478 1477 1476 1475 1474 1473 1472 1471 1469 1468 1467 1466 1465 1464 1463 1462 1462 1461 1459 1458 1456 1455 1453 1452 1450 1449 1448 1447 1446
1487 1486 1486 1485 1485 1484 1483 1483 1482 1481 1480 1479 1479 1478 1476 1475 1473 1472 1471 1470 1469 1468 1467 1466 1465 1464 1463 1462 1461 1460 1459 1457 1456 1454 1453 1451 1450 1448 1447 1445 1444 1443 1442
1486 1485 1485 1484 1483 1482 1482 1481 1480 1479 1479 1478 1477 1476 1475 1473 1472 1471 1469 1468 1467 1466 1465 1464 1463 1462 1461 1460 1458 1457 1456 1454 1452 1451 1449 1448 1446 1445 1443 1441 1440 1439 1438
1485 1484 1483 1482 1481 1480 1480 1479 1478 1477 1476 1476 1475 1474 1473 1471 1470 1469 1468 1467 1466 1465 1463 1462 1461 1460 1459 1457 1456 1454 1453 1451 1449 1447 1446 1444 1443 1441 1440 1438 1437 1435 1433
1484 1483 1481 1480 1479 1479 1478 1477 1476 1475 1474 1474 1473 1472 1471 1470 1469 1468 1467 1465 1464 1463 1462 1461 1460 1458 1457 1455 1453 1451 1449 1447 1445 1444 1442 1441 1440 1438 1436 1435 1433 1432 1430
1482 1481 1480 1479 1478 1477 1476 1475 1475 1474 1473 1472 1471 1471 1470 1469 1468 1466 1465 1464 1463 1462 1461 1460 1458 1456 1454 1452 1450 1448 1446 1444 1442 1440 1439 1438 1436 1434 1433 1431 1430 1428 1426
1480 1479 1478 1477 1476 1475 1475 1474 1473 1472 1471 1471 1470 1469 1468 1467 1466 1465 1464 1463 1462 1460 1459 1457 1456 1454 1452 1449 1447 1445 1443 1441 1440 1438 1436 1434 1433 1431 1429 1428 1426 1425 1423
1478 1478 1477 1476 1475 1474 1473 1472 1471 1471 1470 1469 1468 1468 1467 1466 1465 1463 1462 1461 1460 1458 1457 1455 1453 1451 1449 1446 1444 1442 1440 1438 1437 1435 1433 1431 1429 1428 1426 1424 1422 1421 1420
1476 1476 1475 1475 1474 1472 1471 1470 1470 1469 1468 1467 1467 1466 1465 1464 1463 1462 1460 1459 1457 1455 1454 1452 1450 1447 1445 1443 1441 1439 1437 1435 1433 1431 1430 1428 1426 1424 1422 1420 1418 1417 1416
1475 1474 1473 1473 1472 1470 1470 1469 1468 1467 1466 1466 1465 1464 1463 1462 1461 1459 1458 1456 1455 1452 1450 1448 1446 1444 1442 1439 1437 1435 1433 1432 1430 1428 1426 1424 1422 1419 1418 1416 1414 1412 1411